^^
B2 Weather Station Historical Data
Daily Summary for December 27, 2017 Units:  English    Metric   Both
« Previous Day
Next Day »
Daily Weekly Monthly Yearly Custom
  High: Low: Average:
Temperature: 4.7 °F -6.7 °F -1.2 °F
Dew Point: -4.0 °F -11.3 °F -7.3 °F
Humidity: 83 % 63 % 75 %
Wind Speed: 11.5 mph 0.0 mph 5.2 mph
Wind Gust: 11.5 mph - -
Wind:- - WNW
Pressure: 30.86 in 30.73 in -
Precipitation: 0.00 in    
Historical Graphs
 
 
Tabular Data for December 27, 2017
Time Temperature Dew Point Pressure Wind Wind Speed Wind Gust Humidity Rainfall Rate (Hourly) solar Conditions
00:00 -1.2 °F -6.9 °F 30.74 in WNW 9.2 mph 9.2 mph 76 % 0.00 in 0.0 W/m2 CLR
00:02 -1.3 °F -7.0 °F 30.74 in WNW 8.1 mph 8.1 mph 76 % 0.00 in 0.0 W/m2 CLR
00:07 -1.3 °F -7.0 °F 30.74 in WNW 5.8 mph 5.8 mph 76 % 0.00 in 0.0 W/m2 CLR
00:09 -1.3 °F -7.0 °F 30.74 in WNW 5.8 mph 5.8 mph 76 % 0.00 in 0.0 W/m2 CLR
00:14 -1.3 °F -7.0 °F 30.74 in WNW 4.6 mph 4.6 mph 76 % 0.00 in 0.0 W/m2 CLR
00:18 -1.4 °F -7.1 °F 30.73 in WNW 6.9 mph 6.9 mph 76 % 0.00 in 0.0 W/m2 CLR
00:19 -1.5 °F -7.2 °F 30.73 in NW 5.8 mph 5.8 mph 76 % 0.00 in 0.0 W/m2 CLR
00:24 -1.7 °F -7.4 °F 30.73 in WNW 6.9 mph 6.9 mph 76 % 0.00 in 0.0 W/m2 CLR
00:25 -1.7 °F -7.4 °F 30.73 in WNW 8.1 mph 8.1 mph 76 % 0.00 in 0.0 W/m2 CLR
00:30 -1.8 °F -7.5 °F 30.73 in WNW 8.1 mph 8.1 mph 76 % 0.00 in 0.0 W/m2 CLR
00:35 -1.9 °F -7.6 °F 30.73 in WNW 5.8 mph 5.8 mph 76 % 0.00 in 0.0 W/m2 CLR
00:36 -1.8 °F -7.5 °F 30.73 in WNW 9.0 mph 9.0 mph 76 % 0.00 in 0.0 W/m2 CLR
00:41 -1.9 °F -7.6 °F 30.73 in WNW 8.1 mph 8.1 mph 76 % 0.00 in 0.0 W/m2 CLR
00:46 -1.9 °F -7.3 °F 30.74 in WNW 6.9 mph 6.9 mph 77 % 0.00 in 0.0 W/m2 CLR
00:47 -1.9 °F -7.3 °F 30.74 in WNW 6.9 mph 6.9 mph 77 % 0.00 in 0.0 W/m2 CLR
00:52 -2.0 °F -7.4 °F 30.74 in WNW 3.5 mph 3.5 mph 77 % 0.00 in 0.0 W/m2 CLR
00:53 -2.0 °F -7.4 °F 30.74 in WNW 7.0 mph 7.0 mph 77 % 0.00 in 0.0 W/m2 CLR
00:55 -2.0 °F -7.4 °F 30.74 in WNW 6.9 mph 6.9 mph 77 % 0.00 in 0.0 W/m2 CLR
00:58 -2.0 °F -7.4 °F 30.74 in WNW 6.9 mph 6.9 mph 77 % 0.00 in 0.0 W/m2 CLR
01:00 -2.1 °F -7.5 °F 30.74 in WNW 6.9 mph 6.9 mph 77 % 0.00 in 0.0 W/m2 CLR
01:03 -2.1 °F -7.5 °F 30.74 in WNW 5.8 mph 5.8 mph 77 % 0.00 in 0.0 W/m2 CLR
01:08 -2.2 °F -7.6 °F 30.74 in WNW 6.9 mph 6.9 mph 77 % 0.00 in 0.0 W/m2 CLR
01:09 -2.2 °F -7.6 °F 30.74 in WNW 5.8 mph 5.8 mph 77 % 0.00 in 0.0 W/m2 CLR
01:10 -2.3 °F -7.7 °F 30.74 in WNW 5.0 mph 5.0 mph 77 % 0.00 in 0.0 W/m2 CLR
01:14 -2.3 °F -7.7 °F 30.74 in WNW 6.9 mph 6.9 mph 77 % 0.00 in 0.0 W/m2 CLR
01:15 -2.3 °F -7.7 °F 30.74 in WNW 5.8 mph 5.8 mph 77 % 0.00 in 0.0 W/m2 CLR
01:20 -2.3 °F -7.7 °F 30.74 in WNW 9.2 mph 9.2 mph 77 % 0.00 in 0.0 W/m2 CLR
01:21 -2.3 °F -7.7 °F 30.74 in WNW 9.2 mph 9.2 mph 77 % 0.00 in 0.0 W/m2 CLR
01:26 -2.3 °F -7.7 °F 30.74 in WNW 9.2 mph 9.2 mph 77 % 0.00 in 0.0 W/m2 CLR
01:28 -2.4 °F -7.8 °F 30.74 in NW 6.9 mph 6.9 mph 77 % 0.00 in 0.0 W/m2 CLR
01:33 -2.3 °F -7.5 °F 30.74 in NW 6.0 mph 6.0 mph 78 % 0.00 in 0.0 W/m2 CLR
01:38 -2.3 °F -7.7 °F 30.74 in WNW 6.9 mph 6.9 mph 77 % 0.00 in 0.0 W/m2 CLR
01:43 -2.4 °F -7.6 °F 30.75 in WNW 4.6 mph 4.6 mph 78 % 0.00 in 0.0 W/m2 CLR
01:44 -2.4 °F -7.8 °F 30.74 in WNW 4.0 mph 4.0 mph 77 % 0.00 in 0.0 W/m2 CLR
01:49 -2.6 °F -7.8 °F 30.74 in NW 5.8 mph 5.8 mph 78 % 0.00 in 0.0 W/m2 CLR
01:54 -2.7 °F -7.9 °F 30.75 in WNW 3.5 mph 3.7 mph 78 % 0.00 in 0.0 W/m2 CLR
01:55 -2.8 °F -8.0 °F 30.75 in WNW 6.0 mph 6.0 mph 78 % 0.00 in 0.0 W/m2 CLR
02:00 -2.9 °F -8.1 °F 30.75 in WNW 3.5 mph 3.5 mph 78 % 0.00 in 0.0 W/m2 CLR
02:01 -2.9 °F -8.1 °F 30.75 in WNW 4.6 mph 4.6 mph 78 % 0.00 in 0.0 W/m2 CLR
02:06 -3.0 °F -8.2 °F 30.75 in WNW 5.8 mph 5.8 mph 78 % 0.00 in 0.0 W/m2 CLR
02:07 -3.1 °F -8.3 °F 30.75 in NW 4.0 mph 4.0 mph 78 % 0.00 in 0.0 W/m2 CLR
02:13 -3.2 °F -8.1 °F 30.75 in NW 4.0 mph 4.0 mph 79 % 0.00 in 0.0 W/m2 CLR
02:18 -3.3 °F -8.2 °F 30.75 in WNW 6.9 mph 6.9 mph 79 % 0.00 in 0.0 W/m2 CLR
02:20 -3.3 °F -8.2 °F 30.75 in WNW 5.8 mph 5.8 mph 79 % 0.00 in 0.0 W/m2 CLR
02:25 -3.4 °F -8.3 °F 30.75 in WNW 4.0 mph 4.0 mph 79 % 0.00 in 0.0 W/m2 CLR
02:26 -3.4 °F -8.3 °F 30.75 in WNW 4.0 mph 4.0 mph 79 % 0.00 in 0.0 W/m2 CLR
02:31 -3.5 °F -8.4 °F 30.75 in WNW 5.8 mph 5.8 mph 79 % 0.00 in 0.0 W/m2 CLR
02:36 -3.5 °F -8.4 °F 30.75 in WNW 4.6 mph 4.6 mph 79 % 0.00 in 0.0 W/m2 CLR
02:39 -3.5 °F -8.4 °F 30.75 in WNW 6.9 mph 6.9 mph 79 % 0.00 in 0.0 W/m2 CLR
02:44 -3.5 °F -8.4 °F 30.75 in WNW 6.9 mph 6.9 mph 79 % 0.00 in 0.0 W/m2 CLR
02:45 -3.5 °F -8.4 °F 30.75 in WNW 5.8 mph 5.8 mph 79 % 0.00 in 0.0 W/m2 CLR
02:47 -3.5 °F -8.4 °F 30.75 in WNW 6.9 mph 6.9 mph 79 % 0.00 in 0.0 W/m2 CLR
02:52 -3.5 °F -8.4 °F 30.75 in WNW 7.0 mph 7.0 mph 79 % 0.00 in 0.0 W/m2 CLR
02:53 -3.5 °F -8.4 °F 30.75 in NW 6.9 mph 6.9 mph 79 % 0.00 in 0.0 W/m2 CLR
02:57 -3.4 °F -8.3 °F 30.75 in WNW 5.8 mph 5.8 mph 79 % 0.00 in 0.0 W/m2 CLR
02:59 -3.4 °F -8.3 °F 30.75 in WNW 3.5 mph 3.5 mph 79 % 0.00 in 0.0 W/m2 CLR
03:04 -3.4 °F -8.3 °F 30.75 in WNW 4.6 mph 4.6 mph 79 % 0.00 in 0.0 W/m2 CLR
03:05 -3.4 °F -8.3 °F 30.75 in WNW 4.6 mph 4.6 mph 79 % 0.00 in 0.0 W/m2 CLR
03:06 -3.4 °F -8.5 °F 30.75 in WNW 3.5 mph 3.5 mph 78 % 0.00 in 0.0 W/m2 CLR
03:11 -3.5 °F -8.6 °F 30.75 in NW 4.6 mph 4.6 mph 78 % 0.00 in 0.0 W/m2 CLR
03:16 -3.6 °F -8.7 °F 30.75 in WNW 8.1 mph 8.1 mph 78 % 0.00 in 0.0 W/m2 CLR
03:17 -3.6 °F -8.7 °F 30.75 in WNW 8.1 mph 8.1 mph 78 % 0.00 in 0.0 W/m2 CLR
03:18 -3.6 °F -8.7 °F 30.75 in WNW 5.8 mph 5.8 mph 78 % 0.00 in 0.0 W/m2 CLR
03:22 -3.8 °F -8.9 °F 30.75 in WNW 5.8 mph 5.8 mph 78 % 0.00 in 0.0 W/m2 CLR
03:27 -3.9 °F -9.0 °F 30.75 in NW 6.9 mph 6.9 mph 78 % 0.00 in 0.0 W/m2 CLR
03:28 -3.9 °F -9.0 °F 30.75 in NW 6.9 mph 6.9 mph 78 % 0.00 in 0.0 W/m2 CLR
03:29 -3.9 °F -9.0 °F 30.75 in WNW 8.1 mph 8.1 mph 78 % 0.00 in 0.0 W/m2 CLR
03:34 -4.0 °F -9.1 °F 30.76 in WNW 8.1 mph 8.1 mph 78 % 0.00 in 0.0 W/m2 CLR
03:36 -4.0 °F -9.1 °F 30.76 in WNW 5.8 mph 5.8 mph 78 % 0.00 in 0.0 W/m2 CLR
03:39 -4.1 °F -9.2 °F 30.76 in WNW 6.9 mph 6.9 mph 78 % 0.00 in 0.0 W/m2 CLR
03:44 -4.2 °F -9.3 °F 30.75 in WNW 5.8 mph 5.8 mph 78 % 0.00 in 0.0 W/m2 CLR
03:45 -4.3 °F -9.4 °F 30.75 in WNW 5.8 mph 5.8 mph 78 % 0.00 in 0.0 W/m2 CLR
03:50 -4.4 °F -9.5 °F 30.75 in WNW 5.8 mph 5.8 mph 78 % 0.00 in 0.0 W/m2 CLR
03:54 -4.4 °F -9.5 °F 30.75 in NW 3.5 mph 3.5 mph 78 % 0.00 in 0.0 W/m2 CLR
03:55 -4.4 °F -9.5 °F 30.75 in NW 3.5 mph 3.5 mph 78 % 0.00 in 0.0 W/m2 CLR
04:00 -4.6 °F -9.7 °F 30.75 in NW 6.9 mph 6.9 mph 78 % 0.00 in 0.0 W/m2 CLR
04:01 -4.6 °F -9.7 °F 30.75 in WNW 5.8 mph 5.8 mph 78 % 0.00 in 0.0 W/m2 CLR
04:06 -4.7 °F -9.8 °F 30.75 in WNW 4.0 mph 4.0 mph 78 % 0.00 in 0.0 W/m2 CLR
04:08 -4.7 °F -9.8 °F 30.76 in WNW 4.0 mph 4.0 mph 78 % 0.00 in 0.0 W/m2 CLR
04:13 -4.9 °F -10.0 °F 30.76 in WNW 5.8 mph 5.8 mph 78 % 0.00 in 0.0 W/m2 CLR
04:14 -4.9 °F -10.0 °F 30.76 in WNW 5.8 mph 5.8 mph 78 % 0.00 in 0.0 W/m2 CLR
04:17 -4.9 °F -9.7 °F 30.76 in WNW 6.9 mph 6.9 mph 79 % 0.00 in 0.0 W/m2 CLR
04:22 -5.1 °F -9.9 °F 30.76 in WNW 3.5 mph 3.5 mph 79 % 0.00 in 0.0 W/m2 CLR
04:23 -5.1 °F -9.9 °F 30.76 in WNW 5.0 mph 5.0 mph 79 % 0.00 in 0.0 W/m2 CLR
04:28 -5.2 °F -10.0 °F 30.76 in WNW 5.8 mph 5.8 mph 79 % 0.00 in 0.0 W/m2 CLR
04:32 -5.3 °F -10.1 °F 30.76 in WNW 4.6 mph 4.6 mph 79 % 0.00 in 0.0 W/m2 CLR
04:33 -5.3 °F -10.1 °F 30.76 in WNW 6.9 mph 6.9 mph 79 % 0.00 in 0.0 W/m2 CLR
04:38 -5.3 °F -10.1 °F 30.76 in WNW 5.8 mph 5.8 mph 79 % 0.00 in 0.0 W/m2 CLR
04:41 -5.4 °F -10.2 °F 30.76 in WNW 5.8 mph 5.8 mph 79 % 0.00 in 0.0 W/m2 CLR
04:44 -5.4 °F -10.2 °F 30.76 in WNW 5.8 mph 5.8 mph 79 % 0.00 in 0.0 W/m2 CLR
04:49 -5.4 °F -10.2 °F 30.77 in WNW 6.9 mph 6.9 mph 79 % 0.00 in 0.0 W/m2 CLR
04:53 -5.5 °F -10.3 °F 30.77 in WNW 8.1 mph 8.1 mph 79 % 0.00 in 0.0 W/m2 CLR
04:56 -5.5 °F -10.3 °F 30.77 in WNW 6.9 mph 6.9 mph 79 % 0.00 in 0.0 W/m2 CLR
05:01 -5.5 °F -10.3 °F 30.77 in WNW 4.6 mph 4.6 mph 79 % 0.00 in 0.0 W/m2 CLR
05:06 -5.5 °F -10.3 °F 30.77 in WNW 5.8 mph 5.8 mph 79 % 0.00 in 0.0 W/m2 CLR
05:07 -5.5 °F -10.3 °F 30.77 in WNW 6.9 mph 6.9 mph 79 % 0.00 in 0.0 W/m2 CLR
05:08 -5.6 °F -10.4 °F 30.77 in WNW 4.6 mph 4.6 mph 79 % 0.00 in 0.0 W/m2 CLR
05:13 -5.7 °F -10.5 °F 30.77 in West 6.0 mph 6.0 mph 79 % 0.00 in 0.0 W/m2 CLR
05:14 -5.7 °F -10.5 °F 30.77 in WNW 5.8 mph 5.8 mph 79 % 0.00 in 0.0 W/m2 CLR
05:19 -5.7 °F -10.3 °F 30.77 in West 6.0 mph 6.0 mph 80 % 0.00 in 0.0 W/m2 CLR
05:20 -5.8 °F -10.4 °F 30.77 in WNW 6.9 mph 6.9 mph 80 % 0.00 in 0.0 W/m2 CLR
05:25 -5.8 °F -10.4 °F 30.77 in WNW 5.8 mph 5.8 mph 80 % 0.00 in 0.0 W/m2 CLR
05:30 -5.9 °F -10.5 °F 30.77 in WNW 6.0 mph 6.0 mph 80 % 0.00 in 0.0 W/m2 CLR
05:31 -5.9 °F -10.5 °F 30.78 in WNW 5.8 mph 5.8 mph 80 % 0.00 in 0.0 W/m2 CLR
05:36 -5.9 °F -10.5 °F 30.78 in WNW 6.9 mph 6.9 mph 80 % 0.00 in 0.0 W/m2 CLR
05:37 -5.9 °F -10.5 °F 30.77 in WNW 6.9 mph 6.9 mph 80 % 0.00 in 0.0 W/m2 CLR
05:41 -6.0 °F -10.6 °F 30.77 in WNW 6.0 mph 6.0 mph 80 % 0.00 in 0.0 W/m2 CLR
05:44 -6.0 °F -10.6 °F 30.78 in WNW 4.0 mph 4.0 mph 80 % 0.00 in 0.0 W/m2 CLR
05:47 -6.1 °F -10.7 °F 30.78 in WNW 5.8 mph 5.8 mph 80 % 0.00 in 0.0 W/m2 CLR
05:51 -6.1 °F -10.7 °F 30.78 in WNW 4.6 mph 4.6 mph 80 % 0.00 in 0.0 W/m2 CLR
05:56 -6.2 °F -10.8 °F 30.78 in WNW 5.8 mph 5.8 mph 80 % 0.00 in 0.0 W/m2 CLR
06:01 -6.2 °F -10.8 °F 30.78 in WNW 5.8 mph 5.8 mph 80 % 0.00 in 0.0 W/m2 CLR
06:04 -6.2 °F -10.8 °F 30.78 in WNW 4.6 mph 4.6 mph 80 % 0.00 in 0.0 W/m2 CLR
06:09 -6.2 °F -10.5 °F 30.79 in WNW 5.8 mph 5.8 mph 81 % 0.00 in 0.0 W/m2 CLR
06:10 -6.2 °F -10.5 °F 30.79 in WNW 4.6 mph 4.6 mph 81 % 0.00 in 0.0 W/m2 CLR
06:12 -6.2 °F -10.8 °F 30.79 in WNW 4.6 mph 4.6 mph 80 % 0.00 in 0.0 W/m2 CLR
06:15 -6.3 °F -10.9 °F 30.79 in WNW 4.6 mph 4.6 mph 80 % 0.00 in 0.0 W/m2 CLR
06:19 -6.4 °F -11.0 °F 30.79 in WNW 5.8 mph 5.8 mph 80 % 0.00 in 0.0 W/m2 CLR
06:22 -6.4 °F -11.0 °F 30.79 in WNW 3.5 mph 3.5 mph 80 % 0.00 in 0.0 W/m2 CLR
06:27 -6.5 °F -11.1 °F 30.79 in WNW 3.5 mph 3.5 mph 80 % 0.00 in 0.0 W/m2 CLR
06:28 -6.5 °F -11.1 °F 30.79 in WNW 3.5 mph 3.5 mph 80 % 0.00 in 0.0 W/m2 CLR
06:32 -6.5 °F -11.1 °F 30.80 in WNW 4.6 mph 4.6 mph 80 % 0.00 in 0.0 W/m2 CLR
06:33 -6.5 °F -11.1 °F 30.80 in WNW 4.6 mph 4.6 mph 80 % 0.00 in 0.0 W/m2 CLR
06:38 -6.5 °F -11.1 °F 30.80 in WNW 3.5 mph 3.5 mph 80 % 0.00 in 0.0 W/m2 CLR
06:39 -6.5 °F -11.1 °F 30.80 in WNW 3.5 mph 3.5 mph 80 % 0.00 in 0.0 W/m2 CLR
06:44 -6.6 °F -11.2 °F 30.80 in WNW 3.5 mph 3.5 mph 80 % 0.00 in 0.0 W/m2 CLR
06:45 -6.6 °F -11.2 °F 30.80 in WNW 3.5 mph 3.5 mph 80 % 0.00 in 0.0 W/m2 CLR
06:50 -6.7 °F -11.0 °F 30.80 in WNW 4.6 mph 4.6 mph 81 % 0.00 in 0.0 W/m2 -SN
06:54 -6.7 °F -11.0 °F 30.80 in WNW 3.5 mph 3.5 mph 81 % 0.00 in 0.0 W/m2 -SN
06:55 -6.7 °F -11.0 °F 30.80 in WNW 3.5 mph 3.5 mph 81 % 0.00 in 0.0 W/m2 -SN
07:00 -6.7 °F -11.0 °F 30.80 in WNW 4.6 mph 4.6 mph 81 % 0.00 in 0.0 W/m2 -SN
07:02 -6.7 °F -11.0 °F 30.80 in West 2.3 mph 2.3 mph 81 % 0.00 in 0.0 W/m2 -SN
07:07 -6.6 °F -10.9 °F 30.80 in WNW 4.0 mph 4.0 mph 81 % 0.00 in 0.0 W/m2 -SN
07:10 -6.7 °F -11.0 °F 30.80 in WNW 4.6 mph 4.6 mph 81 % 0.00 in 0.0 W/m2 -SN
07:15 -6.7 °F -11.0 °F 30.80 in WNW 5.8 mph 5.8 mph 81 % 0.00 in 0.0 W/m2 -SN
07:16 -6.7 °F -11.0 °F 30.80 in WNW 5.8 mph 5.8 mph 81 % 0.00 in 5.0 W/m2 -SN
07:17 -6.7 °F -11.0 °F 30.80 in WNW 5.8 mph 5.8 mph 81 % 0.00 in 5.0 W/m2 -SN
07:22 -6.6 °F -10.9 °F 30.81 in WNW 6.9 mph 6.9 mph 81 % 0.00 in 7.0 W/m2 -SN
07:27 -6.4 °F -10.7 °F 30.80 in WNW 6.9 mph 6.9 mph 81 % 0.00 in 11.0 W/m2 -SN
07:28 -6.4 °F -10.7 °F 30.80 in WNW 6.9 mph 6.9 mph 81 % 0.00 in 11.0 W/m2 -SN
07:30 -6.4 °F -10.5 °F 30.80 in WNW 6.0 mph 6.0 mph 82 % 0.00 in 11.0 W/m2 -SN
07:33 -6.3 °F -10.6 °F 30.81 in WNW 6.9 mph 6.9 mph 81 % 0.00 in 12.0 W/m2 -SN
07:49 -5.8 °F -10.1 °F 30.81 in WNW 6.0 mph 6.0 mph 81 % 0.00 in 39.0 W/m2 CLR
07:51 -5.7 °F -10.0 °F 30.81 in WNW 5.8 mph 5.8 mph 81 % 0.00 in 42.0 W/m2 CLR
07:54 -5.6 °F -9.9 °F 30.81 in West 6.9 mph 6.9 mph 81 % 0.00 in 51.0 W/m2 CLR
07:59 -5.4 °F -9.7 °F 30.81 in WNW 5.8 mph 5.8 mph 81 % 0.00 in 63.0 W/m2 CLR
08:00 -5.4 °F -9.7 °F 30.81 in West 6.9 mph 6.9 mph 81 % 0.00 in 65.0 W/m2 CLR
08:01 -5.4 °F -9.7 °F 30.81 in WNW 6.9 mph 6.9 mph 81 % 0.00 in 67.0 W/m2 CLR
08:06 -5.2 °F -9.8 °F 30.81 in WNW 4.6 mph 4.6 mph 80 % 0.00 in 79.0 W/m2 CLR
08:07 -5.2 °F -9.8 °F 30.81 in WNW 4.6 mph 4.6 mph 80 % 0.00 in 81.0 W/m2 CLR
08:12 -5.0 °F -9.6 °F 30.81 in WNW 6.0 mph 6.0 mph 80 % 0.00 in 95.0 W/m2 CLR
08:17 -4.8 °F -9.4 °F 30.82 in WNW 4.6 mph 4.9 mph 80 % 0.00 in 109.0 W/m2 -SN
08:18 -4.8 °F -9.4 °F 30.82 in WNW 8.1 mph 8.1 mph 80 % 0.00 in 111.0 W/m2 -SN
08:23 -4.6 °F -9.5 °F 30.82 in WNW 6.9 mph 6.9 mph 79 % 0.00 in 127.0 W/m2 -SN
08:26 -4.4 °F -9.3 °F 30.82 in NW 9.2 mph 9.2 mph 79 % 0.00 in 137.0 W/m2 -SN
08:28 -4.3 °F -9.2 °F 30.82 in WNW 9.2 mph 9.2 mph 79 % 0.00 in 142.0 W/m2 -SN
08:33 -4.0 °F -8.9 °F 30.82 in WNW 9.2 mph 9.2 mph 79 % 0.00 in 156.0 W/m2 -SN
08:34 -3.9 °F -8.8 °F 30.82 in West 10.4 mph 10.4 mph 79 % 0.00 in 160.0 W/m2 -SN
08:35 -3.9 °F -8.8 °F 30.82 in NW 6.9 mph 6.9 mph 79 % 0.00 in 162.0 W/m2 -SN
08:40 -3.7 °F -8.8 °F 30.82 in WNW 5.8 mph 5.8 mph 78 % 0.00 in 178.0 W/m2 -SN
08:41 -3.7 °F -8.8 °F 30.82 in WNW 5.8 mph 5.8 mph 78 % 0.00 in 178.0 W/m2 -SN
08:44 -3.6 °F -8.7 °F 30.82 in NW 8.1 mph 8.1 mph 78 % 0.00 in 188.0 W/m2 -SN
08:46 -3.6 °F -8.7 °F 30.82 in NW 9.0 mph 9.0 mph 78 % 0.00 in 195.0 W/m2 -SN
08:50 -3.5 °F -8.9 °F 30.82 in NW 10.4 mph 10.4 mph 77 % 0.00 in 206.0 W/m2 -SN
08:51 -3.5 °F -8.9 °F 30.82 in NW 8.1 mph 8.1 mph 77 % 0.00 in 211.0 W/m2 -SN
08:56 -3.3 °F -8.7 °F 30.82 in NW 9.2 mph 9.2 mph 77 % 0.00 in 223.0 W/m2 -SN
08:58 -3.3 °F -8.7 °F 30.82 in NW 6.9 mph 6.9 mph 77 % 0.00 in 229.0 W/m2 -SN
09:03 -3.2 °F -8.6 °F 30.82 in WNW 9.2 mph 9.2 mph 77 % 0.00 in 243.0 W/m2 -SN
09:04 -3.2 °F -8.6 °F 30.82 in NW 9.2 mph 9.2 mph 77 % 0.00 in 244.0 W/m2 -SN
09:05 -3.1 °F -8.5 °F 30.83 in NW 9.2 mph 9.2 mph 77 % 0.00 in 250.0 W/m2 -SN
09:10 -3.0 °F -8.7 °F 30.83 in NW 10.4 mph 10.4 mph 76 % 0.00 in 262.0 W/m2 -SN
09:11 -3.0 °F -8.4 °F 30.83 in NW 10.4 mph 10.4 mph 77 % 0.00 in 262.0 W/m2 -SN
09:13 -2.9 °F -8.6 °F 30.83 in WNW 8.1 mph 8.1 mph 76 % 0.00 in 269.0 W/m2 -SN
09:18 -2.7 °F -8.4 °F 30.83 in NW 5.8 mph 5.8 mph 76 % 0.00 in 279.0 W/m2 -SN
09:21 -2.6 °F -8.3 °F 30.84 in NW 8.1 mph 8.1 mph 76 % 0.00 in 287.0 W/m2 -SN
09:25 -2.5 °F -8.2 °F 30.84 in NW 9.2 mph 9.2 mph 76 % 0.00 in 295.0 W/m2 -SN
09:29 -2.4 °F -8.4 °F 30.84 in NW 10.4 mph 10.4 mph 75 % 0.00 in 302.0 W/m2 -SN
09:31 -2.3 °F -8.3 °F 30.85 in NW 6.9 mph 6.9 mph 75 % 0.00 in 309.0 W/m2 -SN
09:36 -2.1 °F -8.1 °F 30.85 in NW 10.4 mph 10.4 mph 75 % 0.00 in 318.0 W/m2 -SN
09:38 -2.1 °F -8.1 °F 30.85 in NW 8.1 mph 8.1 mph 75 % 0.00 in 322.0 W/m2 -SN
09:39 -2.0 °F -8.0 °F 30.85 in NW 10.4 mph 10.4 mph 75 % 0.00 in 323.0 W/m2 -SN
09:44 -1.8 °F -7.8 °F 30.85 in NW 11.5 mph 11.5 mph 75 % 0.00 in 332.0 W/m2 CLR
09:45 -1.7 °F -7.7 °F 30.85 in NW 10.4 mph 10.4 mph 75 % 0.00 in 336.0 W/m2 CLR
09:47 -1.7 °F -7.7 °F 30.86 in NW 10.4 mph 10.4 mph 75 % 0.00 in 339.0 W/m2 CLR
09:50 -1.6 °F -7.9 °F 30.85 in WNW 9.2 mph 9.2 mph 74 % 0.00 in 345.0 W/m2 CLR
09:55 -1.3 °F -7.6 °F 30.85 in NW 9.2 mph 9.2 mph 74 % 0.00 in 355.0 W/m2 CLR
09:57 -1.3 °F -7.6 °F 30.85 in NW 9.2 mph 9.2 mph 74 % 0.00 in 359.0 W/m2 CLR
10:02 -1.1 °F -7.4 °F 30.85 in NW 11.5 mph 11.5 mph 74 % 0.00 in 367.0 W/m2 CLR
10:03 -1.0 °F -7.3 °F 30.85 in NW 11.5 mph 11.5 mph 74 % 0.00 in 367.0 W/m2 CLR
10:05 -1.0 °F -7.3 °F 30.85 in NW 8.1 mph 8.1 mph 74 % 0.00 in 371.0 W/m2 CLR
10:09 -0.9 °F -7.2 °F 30.85 in NW 10.4 mph 10.4 mph 74 % 0.00 in 378.0 W/m2 CLR
10:13 -0.8 °F -7.1 °F 30.85 in NW 9.2 mph 9.2 mph 74 % 0.00 in 385.0 W/m2 CLR
10:14 -0.8 °F -7.1 °F 30.86 in NW 8.1 mph 8.1 mph 74 % 0.00 in 385.0 W/m2 CLR
10:19 -0.6 °F -6.9 °F 30.85 in NW 9.2 mph 9.2 mph 74 % 0.00 in 394.0 W/m2 CLR
10:20 -0.6 °F -6.9 °F 30.85 in NW 11.5 mph 11.5 mph 74 % 0.00 in 396.0 W/m2 CLR
10:21 -0.5 °F -6.8 °F 30.86 in NW 11.5 mph 11.5 mph 74 % 0.00 in 396.0 W/m2 CLR
10:25 -0.4 °F -6.7 °F 30.86 in North 9.2 mph 9.2 mph 74 % 0.00 in 403.0 W/m2 CLR
10:27 -0.2 °F -6.5 °F 30.86 in NW 10.4 mph 10.4 mph 74 % 0.00 in 404.0 W/m2 CLR
10:31 -0.1 °F -6.4 °F 30.85 in NW 10.4 mph 10.4 mph 74 % 0.00 in 410.0 W/m2 CLR
10:36 0.1 °F -6.5 °F 30.85 in NW 11.5 mph 11.5 mph 73 % 0.00 in 417.0 W/m2 CLR
10:37 0.1 °F -6.5 °F 30.85 in NW 9.2 mph 9.2 mph 73 % 0.00 in 417.0 W/m2 CLR
10:41 0.3 °F -6.3 °F 30.85 in WNW 9.2 mph 9.2 mph 73 % 0.00 in 420.0 W/m2 CLR
10:43 0.4 °F -6.5 °F 30.85 in NW 8.1 mph 8.1 mph 72 % 0.00 in 424.0 W/m2 CLR
10:48 0.9 °F -5.7 °F 30.85 in NW 8.1 mph 8.1 mph 73 % 0.00 in 429.0 W/m2 CLR
10:53 1.0 °F -5.9 °F 30.85 in NW 6.9 mph 6.9 mph 72 % 0.00 in 434.0 W/m2 CLR
10:57 1.2 °F -5.7 °F 30.85 in NW 9.2 mph 9.2 mph 72 % 0.00 in 436.0 W/m2 CLR
10:59 1.2 °F -5.7 °F 30.85 in NW 9.0 mph 9.0 mph 72 % 0.00 in 439.0 W/m2 CLR
11:04 1.3 °F -5.9 °F 30.85 in WNW 8.1 mph 8.1 mph 71 % 0.00 in 443.0 W/m2 CLR
11:09 1.3 °F -6.2 °F 30.85 in NW 9.2 mph 9.2 mph 70 % 0.00 in 446.0 W/m2 CLR
11:11 1.3 °F -6.2 °F 30.85 in NW 9.2 mph 9.2 mph 70 % 0.00 in 446.0 W/m2 CLR
11:14 1.4 °F -5.8 °F 30.85 in NW 9.2 mph 9.2 mph 71 % 0.00 in 448.0 W/m2 CLR
11:17 1.5 °F -5.7 °F 30.85 in NW 7.0 mph 7.0 mph 71 % 0.00 in 448.0 W/m2 CLR
11:22 1.7 °F -5.8 °F 30.85 in NW 11.5 mph 11.5 mph 70 % 0.00 in 454.0 W/m2 CLR
11:23 1.8 °F -5.7 °F 30.84 in NW 11.5 mph 11.5 mph 70 % 0.00 in 454.0 W/m2 CLR
11:28 1.8 °F -5.7 °F 30.84 in NW 10.4 mph 10.4 mph 70 % 0.00 in 455.0 W/m2 CLR
11:30 1.8 °F -5.7 °F 30.84 in NW 10.4 mph 10.4 mph 70 % 0.00 in 457.0 W/m2 CLR
11:35 1.9 °F -5.6 °F 30.84 in NW 9.2 mph 9.2 mph 70 % 0.00 in 459.0 W/m2 CLR
11:36 1.9 °F -5.6 °F 30.84 in WNW 10.4 mph 10.4 mph 70 % 0.00 in 459.0 W/m2 CLR
11:40 2.1 °F -5.4 °F 30.83 in NW 6.9 mph 6.9 mph 70 % 0.00 in 461.0 W/m2 CLR
11:43 2.3 °F -5.3 °F 30.83 in NW 9.2 mph 9.2 mph 70 % 0.00 in 459.0 W/m2 CLR
11:47 2.4 °F -4.9 °F 30.83 in NNW 8.1 mph 8.1 mph 71 % 0.00 in 461.0 W/m2 CLR
11:52 2.4 °F -5.2 °F 30.83 in NW 10.4 mph 10.4 mph 70 % 0.00 in 461.0 W/m2 CLR
11:57 2.6 °F -5.0 °F 30.83 in NW 11.5 mph 11.5 mph 70 % 0.00 in 461.0 W/m2 CLR
11:59 2.6 °F -5.0 °F 30.83 in NW 10.4 mph 10.4 mph 70 % 0.00 in 462.0 W/m2 CLR
12:00 2.6 °F -5.0 °F 30.83 in NW 10.4 mph 10.4 mph 70 % 0.00 in 461.0 W/m2 CLR
12:05 2.7 °F -4.9 °F 30.83 in WNW 7.0 mph 7.0 mph 70 % 0.00 in 461.0 W/m2 CLR
12:09 2.7 °F -4.9 °F 30.83 in WNW 6.9 mph 7.0 mph 70 % 0.00 in 461.0 W/m2 CLR
12:10 2.7 °F -4.9 °F 30.83 in WNW 7.0 mph 7.0 mph 70 % 0.00 in 461.0 W/m2 CLR
12:15 2.9 °F -5.0 °F 30.84 in WNW 9.2 mph 9.2 mph 69 % 0.00 in 459.0 W/m2 CLR
12:18 3.1 °F -4.5 °F 30.83 in WNW 6.9 mph 6.9 mph 70 % 0.00 in 455.0 W/m2 CLR
12:20 3.3 °F -4.3 °F 30.83 in WNW 4.6 mph 4.6 mph 70 % 0.00 in 454.0 W/m2 CLR
12:25 3.6 °F -4.3 °F 30.83 in WNW 6.9 mph 6.9 mph 69 % 0.00 in 450.0 W/m2 CLR
12:26 3.6 °F -4.3 °F 30.83 in WNW 3.5 mph 3.5 mph 69 % 0.00 in 454.0 W/m2 CLR
12:31 3.9 °F -4.3 °F 30.84 in West 9.0 mph 9.0 mph 68 % 0.00 in 448.0 W/m2 CLR
12:32 3.9 °F -4.3 °F 30.84 in WNW 9.2 mph 9.2 mph 68 % 0.00 in 450.0 W/m2 CLR
12:33 3.9 °F -4.6 °F 30.84 in WNW 11.5 mph 11.5 mph 67 % 0.00 in 446.0 W/m2 CLR
12:38 4.0 °F -4.5 °F 30.84 in NW 8.1 mph 8.1 mph 67 % 0.00 in 443.0 W/m2 CLR
12:39 4.0 °F -4.5 °F 30.84 in NW 10.0 mph 10.0 mph 67 % 0.00 in 443.0 W/m2 CLR
12:44 4.1 °F -4.1 °F 30.84 in NW 11.5 mph 11.5 mph 68 % 0.00 in 439.0 W/m2 CLR
12:45 4.1 °F -4.1 °F 30.84 in NW 11.5 mph 11.5 mph 68 % 0.00 in 439.0 W/m2 CLR
12:50 4.2 °F -4.0 °F 30.84 in WNW 10.4 mph 10.4 mph 68 % 0.00 in 436.0 W/m2 CLR
12:51 4.2 °F -4.0 °F 30.84 in WNW 11.5 mph 11.5 mph 68 % 0.00 in 436.0 W/m2 CLR
12:52 4.2 °F -4.3 °F 30.84 in WNW 10.4 mph 10.4 mph 67 % 0.00 in 432.0 W/m2 CLR
12:56 4.2 °F -4.7 °F 30.84 in NW 10.4 mph 10.4 mph 66 % 0.00 in 431.0 W/m2 CLR
13:01 4.1 °F -4.8 °F 30.83 in WNW 10.4 mph 10.4 mph 66 % 0.00 in 425.0 W/m2 CLR
13:03 4.2 °F -4.7 °F 30.83 in WNW 6.9 mph 6.9 mph 66 % 0.00 in 424.0 W/m2 CLR
13:04 4.2 °F -4.7 °F 30.83 in WNW 10.4 mph 10.4 mph 66 % 0.00 in 424.0 W/m2 CLR
13:09 4.3 °F -4.6 °F 30.83 in WNW 10.4 mph 10.4 mph 66 % 0.00 in 417.0 W/m2 CLR
13:10 4.3 °F -4.6 °F 30.83 in WNW 10.4 mph 10.4 mph 66 % 0.00 in 417.0 W/m2 CLR
13:12 4.4 °F -4.5 °F 30.83 in WNW 10.4 mph 10.4 mph 66 % 0.00 in 413.0 W/m2 CLR
13:17 4.3 °F -4.9 °F 30.84 in West 10.4 mph 10.4 mph 65 % 0.00 in 408.0 W/m2 CLR
13:19 4.4 °F -4.8 °F 30.83 in NW 10.4 mph 10.4 mph 65 % 0.00 in 406.0 W/m2 CLR
13:24 4.3 °F -4.9 °F 30.83 in WNW 10.4 mph 10.4 mph 65 % 0.00 in 403.0 W/m2 CLR
13:26 4.5 °F -4.7 °F 30.83 in WNW 10.4 mph 10.4 mph 65 % 0.00 in 396.0 W/m2 CLR
13:29 4.5 °F -4.7 °F 30.83 in NW 9.2 mph 9.2 mph 65 % 0.00 in 392.0 W/m2 CLR
13:34 4.5 °F -5.0 °F 30.83 in NNW 11.5 mph 11.5 mph 64 % 0.00 in 385.0 W/m2 CLR
13:35 4.5 °F -5.0 °F 30.83 in WNW 10.4 mph 10.4 mph 64 % 0.00 in 383.0 W/m2 CLR
13:40 4.7 °F -4.8 °F 30.83 in NW 11.5 mph 11.5 mph 64 % 0.00 in 376.0 W/m2 CLR
13:41 4.7 °F -4.8 °F 30.83 in WNW 8.1 mph 8.1 mph 64 % 0.00 in 374.0 W/m2 CLR
13:46 4.6 °F -4.9 °F 30.82 in NW 10.4 mph 10.4 mph 64 % 0.00 in 367.0 W/m2 CLR
13:48 4.6 °F -5.2 °F 30.82 in NW 8.1 mph 8.1 mph 63 % 0.00 in 364.0 W/m2 CLR
13:53 4.6 °F -5.2 °F 30.82 in WNW 11.5 mph 11.5 mph 63 % 0.00 in 357.0 W/m2 CLR
13:54 4.7 °F -5.1 °F 30.82 in WNW 11.5 mph 11.5 mph 63 % 0.00 in 355.0 W/m2 CLR
13:59 4.6 °F -5.2 °F 30.82 in WNW 11.5 mph 11.5 mph 63 % 0.00 in 345.0 W/m2 CLR
14:00 4.6 °F -5.2 °F 30.82 in WNW 11.5 mph 11.5 mph 63 % 0.00 in 341.0 W/m2 CLR
14:04 4.6 °F -5.2 °F 30.82 in NW 10.4 mph 10.4 mph 63 % 0.00 in 332.0 W/m2 CLR
14:06 4.6 °F -5.2 °F 30.81 in NW 9.2 mph 9.2 mph 63 % 0.00 in 330.0 W/m2 CLR
14:09 4.6 °F -5.2 °F 30.81 in NW 11.5 mph 11.5 mph 63 % 0.00 in 308.0 W/m2 CLR
14:11 4.5 °F -5.3 °F 30.81 in NW 8.1 mph 8.1 mph 63 % 0.00 in 302.0 W/m2 CLR
14:16 4.5 °F -5.0 °F 30.81 in NW 5.8 mph 5.8 mph 64 % 0.00 in 304.0 W/m2 CLR
14:21 4.7 °F -4.8 °F 30.81 in NW 10.4 mph 10.4 mph 64 % 0.00 in 274.0 W/m2 CLR
14:23 4.7 °F -5.1 °F 30.81 in WNW 10.4 mph 10.4 mph 63 % 0.00 in 274.0 W/m2 CLR
14:26 4.6 °F -5.2 °F 30.81 in NW 8.1 mph 8.1 mph 63 % 0.00 in 294.0 W/m2 CLR
14:31 4.6 °F -4.9 °F 30.81 in NNW 10.4 mph 10.4 mph 64 % 0.00 in 279.0 W/m2 CLR
14:32 4.7 °F -4.8 °F 30.81 in NNW 10.4 mph 10.4 mph 64 % 0.00 in 279.0 W/m2 CLR
14:37 4.6 °F -4.9 °F 30.81 in NW 9.2 mph 9.2 mph 64 % 0.00 in 271.0 W/m2 CLR
14:42 4.7 °F -4.5 °F 30.80 in NW 8.1 mph 8.1 mph 65 % 0.00 in 243.0 W/m2 CLR
14:43 4.7 °F -4.5 °F 30.80 in NNW 8.1 mph 8.1 mph 65 % 0.00 in 239.0 W/m2 CLR
14:48 4.6 °F -4.3 °F 30.81 in WNW 6.9 mph 6.9 mph 66 % 0.00 in 176.0 W/m2 CLR
14:50 4.5 °F -4.7 °F 30.80 in North 3.5 mph 3.5 mph 65 % 0.00 in 153.0 W/m2 CLR
14:55 4.4 °F -4.8 °F 30.80 in NNW 4.6 mph 4.6 mph 65 % 0.00 in 171.0 W/m2 CLR
14:57 4.5 °F -4.4 °F 30.80 in NW 5.8 mph 5.8 mph 66 % 0.00 in 153.0 W/m2 CLR
15:02 4.4 °F -4.5 °F 30.80 in NW 8.1 mph 8.1 mph 66 % 0.00 in 114.0 W/m2 CLR
15:03 4.3 °F -4.6 °F 30.80 in NW 8.1 mph 8.1 mph 66 % 0.00 in 114.0 W/m2 CLR
15:08 4.2 °F -4.7 °F 30.80 in WNW 1.2 mph 1.2 mph 66 % 0.00 in 84.0 W/m2 CLR
15:09 4.2 °F -4.3 °F 30.80 in WNW 2.3 mph 2.3 mph 67 % 0.00 in 98.0 W/m2 CLR
15:12 4.2 °F -4.3 °F 30.80 in WNW 3.5 mph 3.5 mph 67 % 0.00 in 88.0 W/m2 CLR
15:14 4.1 °F -4.4 °F 30.80 in WNW 3.5 mph 3.5 mph 67 % 0.00 in 90.0 W/m2 CLR
15:19 4.0 °F -4.5 °F 30.80 in NW 5.8 mph 5.8 mph 67 % 0.00 in 81.0 W/m2 CLR
15:21 4.0 °F -4.5 °F 30.80 in NNW 4.0 mph 4.0 mph 67 % 0.00 in 81.0 W/m2 CLR
15:22 4.0 °F -4.5 °F 30.80 in NW 3.5 mph 3.5 mph 67 % 0.00 in 81.0 W/m2 CLR
15:27 4.0 °F -4.5 °F 30.80 in NW 3.5 mph 3.5 mph 67 % 0.00 in 81.0 W/m2 CLR
15:28 3.9 °F -4.6 °F 30.80 in NW 3.5 mph 3.5 mph 67 % 0.00 in 83.0 W/m2 CLR
15:32 3.9 °F -4.6 °F 30.80 in NW 3.5 mph 3.5 mph 67 % 0.00 in 63.0 W/m2 CLR
15:37 3.8 °F -4.7 °F 30.81 in WNW 3.5 mph 3.5 mph 67 % 0.00 in 49.0 W/m2 CLR
15:39 3.8 °F -4.7 °F 30.81 in WNW 2.3 mph 2.3 mph 67 % 0.00 in 46.0 W/m2 CLR
15:43 3.7 °F -4.8 °F 30.81 in WNW 2.3 mph 2.3 mph 67 % 0.00 in 37.0 W/m2 CLR
15:48 3.6 °F -4.9 °F 30.81 in WNW 1.2 mph 1.2 mph 67 % 0.00 in 33.0 W/m2 CLR
15:53 3.5 °F -4.7 °F 30.81 in WNW 3.5 mph 3.5 mph 68 % 0.00 in 30.0 W/m2 CLR
15:54 3.4 °F -4.8 °F 30.81 in WNW 3.5 mph 3.5 mph 68 % 0.00 in 28.0 W/m2 CLR
15:59 3.2 °F -5.0 °F 30.82 in WNW 2.3 mph 2.3 mph 68 % 0.00 in 26.0 W/m2 CLR
16:04 3.1 °F -5.1 °F 30.82 in WNW 2.3 mph 2.3 mph 68 % 0.00 in 23.0 W/m2 CLR
16:06 3.0 °F -5.2 °F 30.82 in WNW 2.3 mph 2.3 mph 68 % 0.00 in 23.0 W/m2 CLR
16:11 2.9 °F -5.3 °F 30.82 in WNW 1.2 mph 1.2 mph 68 % 0.00 in 19.0 W/m2 CLR
16:12 2.9 °F -5.3 °F 30.82 in Calm     68 % 0.00 in 18.0 W/m2 CLR
16:17 2.8 °F -5.1 °F 30.82 in WNW 1.2 mph 1.2 mph 69 % 0.00 in 12.0 W/m2 CLR
16:22 2.7 °F -5.2 °F 30.82 in WNW 2.3 mph 2.3 mph 69 % 0.00 in 7.0 W/m2 CLR
16:24 2.7 °F -5.2 °F 30.82 in WNW 3.5 mph 3.5 mph 69 % 0.00 in 5.0 W/m2 CLR
16:29 2.7 °F -5.2 °F 30.82 in WNW 3.5 mph 3.5 mph 69 % 0.00 in 0.0 W/m2 CLR
16:30 2.7 °F -5.2 °F 30.82 in WNW 2.3 mph 2.3 mph 69 % 0.00 in 0.0 W/m2 CLR
16:35 2.7 °F -4.9 °F 30.82 in Calm     70 % 0.00 in 0.0 W/m2 CLR
16:37 2.7 °F -4.9 °F 30.82 in WNW 2.3 mph 2.3 mph 70 % 0.00 in 0.0 W/m2 CLR
16:39 2.7 °F -4.9 °F 30.82 in WNW 1.0 mph 1.0 mph 70 % 0.00 in 0.0 W/m2 CLR
16:44 2.7 °F -4.9 °F 30.82 in WNW 2.3 mph 2.3 mph 70 % 0.00 in 0.0 W/m2 CLR
16:45 2.7 °F -4.9 °F 30.82 in WNW 1.2 mph   70 % 0.00 in 0.0 W/m2 CLR
16:49 2.8 °F -4.8 °F 30.82 in WNW 1.2 mph 1.2 mph 70 % 0.00 in 0.0 W/m2 CLR
16:51 2.8 °F -4.8 °F 30.82 in WNW 1.2 mph 1.2 mph 70 % 0.00 in 0.0 W/m2 CLR
16:52 2.8 °F -4.8 °F 30.81 in WNW 3.5 mph 3.5 mph 70 % 0.00 in 0.0 W/m2 CLR
16:55 2.7 °F -4.9 °F 30.82 in WNW 1.2 mph 1.2 mph 70 % 0.00 in 0.0 W/m2 CLR
17:00 2.7 °F -4.9 °F 30.82 in WNW 1.2 mph 1.2 mph 70 % 0.00 in 0.0 W/m2 CLR
17:05 2.6 °F -5.0 °F 30.82 in WNW 3.0 mph 3.0 mph 70 % 0.00 in 0.0 W/m2 CLR
17:10 2.6 °F -5.0 °F 30.82 in WNW 3.5 mph 3.5 mph 70 % 0.00 in 0.0 W/m2 CLR
17:12 2.6 °F -5.0 °F 30.82 in WNW 3.5 mph 3.5 mph 70 % 0.00 in 0.0 W/m2 CLR
17:17 2.5 °F -5.1 °F 30.82 in WNW 2.3 mph 2.3 mph 70 % 0.00 in 0.0 W/m2 CLR
17:18 2.5 °F -5.1 °F 30.82 in WNW 2.3 mph 2.9 mph 70 % 0.00 in 0.0 W/m2 CLR
17:19 2.5 °F -5.1 °F 30.82 in WNW 4.6 mph 4.6 mph 70 % 0.00 in 0.0 W/m2 CLR
17:24 2.5 °F -5.1 °F 30.82 in WNW 3.5 mph 3.5 mph 70 % 0.00 in 0.0 W/m2 CLR
17:29 2.5 °F -5.1 °F 30.82 in WNW 1.2 mph   70 % 0.00 in 0.0 W/m2 CLR
17:30 2.5 °F -5.1 °F 30.82 in WNW 1.2 mph 1.2 mph 70 % 0.00 in 0.0 W/m2 CLR
17:35 2.5 °F -5.1 °F 30.82 in WNW 1.2 mph   70 % 0.00 in 0.0 W/m2 CLR
17:37 2.5 °F -5.1 °F 30.82 in WNW 1.2 mph 1.2 mph 70 % 0.00 in 0.0 W/m2 CLR
17:39 2.4 °F -5.2 °F 30.82 in WNW 2.0 mph 2.0 mph 70 % 0.00 in 0.0 W/m2 CLR
17:42 2.4 °F -5.2 °F 30.82 in WNW 3.5 mph 3.5 mph 70 % 0.00 in 0.0 W/m2 CLR
17:47 2.2 °F -5.4 °F 30.82 in WNW 1.2 mph 1.2 mph 70 % 0.00 in 0.0 W/m2 CLR
17:50 2.0 °F -5.5 °F 30.82 in WNW 1.2 mph 1.2 mph 70 % 0.00 in 0.0 W/m2 CLR
17:53 1.9 °F -5.6 °F 30.82 in NW 4.6 mph 4.6 mph 70 % 0.00 in 0.0 W/m2 CLR
17:56 1.7 °F -5.8 °F 30.82 in NW 3.5 mph 3.5 mph 70 % 0.00 in 0.0 W/m2 CLR
18:01 1.5 °F -6.0 °F 30.82 in WNW 3.5 mph 3.5 mph 70 % 0.00 in 0.0 W/m2 CLR
18:06 1.3 °F -5.9 °F 30.82 in WNW 2.0 mph 2.0 mph 71 % 0.00 in 0.0 W/m2 CLR
18:08 1.3 °F -5.9 °F 30.82 in WNW 1.2 mph 1.2 mph 71 % 0.00 in 0.0 W/m2 CLR
18:13 1.2 °F -6.0 °F 30.82 in WNW 2.3 mph 2.3 mph 71 % 0.00 in 0.0 W/m2 CLR
18:14 1.2 °F -5.7 °F 30.82 in WNW 2.3 mph 2.3 mph 72 % 0.00 in 0.0 W/m2 CLR
18:15 1.1 °F -5.8 °F 30.82 in WNW 2.3 mph 2.3 mph 72 % 0.00 in 0.0 W/m2 CLR
18:19 1.0 °F -5.9 °F 30.82 in WNW 2.3 mph 2.3 mph 72 % 0.00 in 0.0 W/m2 CLR
18:20 1.0 °F -5.9 °F 30.82 in WNW 1.2 mph 1.2 mph 72 % 0.00 in 0.0 W/m2 CLR
18:25 0.9 °F -6.0 °F 30.83 in WNW 3.5 mph 3.5 mph 72 % 0.00 in 0.0 W/m2 CLR
18:26 0.9 °F -6.0 °F 30.83 in WNW 2.0 mph 2.0 mph 72 % 0.00 in 0.0 W/m2 CLR
18:31 0.8 °F -5.8 °F 30.83 in WNW 1.2 mph   73 % 0.00 in 0.0 W/m2 CLR
18:32 0.8 °F -5.8 °F 30.83 in Calm     73 % 0.00 in 0.0 W/m2 CLR
18:37 0.8 °F -5.8 °F 30.83 in WNW 2.3 mph 2.3 mph 73 % 0.00 in 0.0 W/m2 CLR
18:40 0.7 °F -5.9 °F 30.83 in WNW 1.2 mph 1.2 mph 73 % 0.00 in 0.0 W/m2 CLR
18:44 0.6 °F -5.7 °F 30.83 in WNW 2.3 mph 2.3 mph 74 % 0.00 in 0.0 W/m2 CLR
18:47 0.6 °F -5.7 °F 30.82 in WNW 4.6 mph 4.6 mph 74 % 0.00 in 0.0 W/m2 CLR
18:50 0.5 °F -5.8 °F 30.83 in WNW 3.5 mph 3.5 mph 74 % 0.00 in 0.0 W/m2 CLR
18:54 0.5 °F -5.8 °F 30.83 in WNW 3.5 mph 3.5 mph 74 % 0.00 in 0.0 W/m2 CLR
18:55 0.5 °F -5.8 °F 30.83 in WNW 3.5 mph 3.5 mph 74 % 0.00 in 0.0 W/m2 CLR
18:59 0.4 °F -5.9 °F 30.83 in WNW 2.3 mph 2.3 mph 74 % 0.00 in 0.0 W/m2 CLR
19:00 0.3 °F -6.0 °F 30.83 in WNW 2.3 mph 2.3 mph 74 % 0.00 in 0.0 W/m2 CLR
19:05 0.2 °F -6.1 °F 30.83 in WNW 2.3 mph 2.3 mph 74 % 0.00 in 0.0 W/m2 CLR
19:06 0.2 °F -6.1 °F 30.83 in WNW 3.5 mph 3.5 mph 74 % 0.00 in 0.0 W/m2 CLR
19:10 0.1 °F -5.9 °F 30.82 in WNW 2.3 mph 2.3 mph 75 % 0.00 in 0.0 W/m2 CLR
19:11 0.1 °F -5.9 °F 30.82 in WNW 2.3 mph   75 % 0.00 in 0.0 W/m2 CLR
19:16 0.1 °F -5.9 °F 30.83 in Calm     75 % 0.00 in 0.0 W/m2 CLR
19:21 0.0 °F -6.0 °F 30.83 in WNW 1.2 mph   75 % 0.00 in 0.0 W/m2 CLR
19:26 -0.1 °F -6.1 °F 30.82 in WNW 2.3 mph 2.3 mph 75 % 0.00 in 0.0 W/m2 CLR
19:31 -0.3 °F -6.3 °F 30.82 in WNW 3.5 mph 3.5 mph 75 % 0.00 in 0.0 W/m2 CLR
19:33 -0.4 °F -6.4 °F 30.82 in WNW 3.5 mph 3.5 mph 75 % 0.00 in 0.0 W/m2 CLR
19:37 -0.5 °F -6.5 °F 30.81 in WNW 1.2 mph   75 % 0.00 in 0.0 W/m2 CLR
19:40 -0.6 °F -6.4 °F 30.81 in Calm     76 % 0.00 in 0.0 W/m2 CLR
19:45 -0.8 °F -6.8 °F 30.81 in Calm     75 % 0.00 in 0.0 W/m2 CLR
19:50 -1.4 °F -8.0 °F 30.81 in Calm     73 % 0.00 in 0.0 W/m2 CLR
19:55 -2.4 °F -9.2 °F 30.81 in Calm     72 % 0.00 in 0.0 W/m2 CLR
19:56 -2.5 °F -9.3 °F 30.81 in Calm     72 % 0.00 in 0.0 W/m2 CLR
19:58 -2.8 °F -9.6 °F 30.81 in Calm     72 % 0.00 in 0.0 W/m2 CLR
20:01 -3.1 °F -9.9 °F 30.80 in Calm     72 % 0.00 in 0.0 W/m2 CLR
20:05 -3.3 °F -9.8 °F 30.80 in Calm     73 % 0.00 in 0.0 W/m2 CLR
20:07 -3.5 °F -10.0 °F 30.80 in Calm     73 % 0.00 in 0.0 W/m2 CLR
20:12 -3.7 °F -10.2 °F 30.80 in Calm     73 % 0.00 in 0.0 W/m2 CLR
20:16 -4.0 °F -10.5 °F 30.80 in Calm     73 % 0.00 in 0.0 W/m2 CLR
20:17 -4.1 °F -10.6 °F 30.80 in Calm     73 % 0.00 in 0.0 W/m2 CLR
20:21 -4.4 °F -10.9 °F 30.79 in Calm     73 % 0.00 in 0.0 W/m2 CLR
20:24 -4.8 °F -11.3 °F 30.79 in Calm     73 % 0.00 in 0.0 W/m2 CLR
20:29 -5.0 °F -10.9 °F 30.79 in Calm     75 % 0.00 in 0.0 W/m2 CLR
20:30 -5.0 °F -10.6 °F 30.79 in Calm     76 % 0.00 in 0.0 W/m2 CLR
20:33 -5.0 °F -10.6 °F 30.79 in Calm     76 % 0.00 in 0.0 W/m2 CLR
20:37 -5.4 °F -11.0 °F 30.79 in Calm     76 % 0.00 in 0.0 W/m2 CLR
20:40 -5.5 °F -11.1 °F 30.79 in Calm     76 % 0.00 in 0.0 W/m2 CLR
20:44 -5.4 °F -10.8 °F 30.79 in Calm     77 % 0.00 in 0.0 W/m2 CLR
20:46 -5.3 °F -10.4 °F 30.79 in Calm     78 % 0.00 in 0.0 W/m2 CLR
20:50 -5.1 °F -10.2 °F 30.80 in Calm     78 % 0.00 in 0.0 W/m2 CLR
20:56 -4.5 °F -9.1 °F 30.80 in Calm     80 % 0.00 in 0.0 W/m2 CLR
20:57 -4.4 °F -9.0 °F 30.80 in Calm     80 % 0.00 in 0.0 W/m2 CLR
21:02 -3.7 °F -8.1 °F 30.80 in Calm     81 % 0.00 in 0.0 W/m2 CLR
21:06 -3.6 °F -8.0 °F 30.80 in Calm     81 % 0.00 in 0.0 W/m2 CLR
21:07 -3.6 °F -8.0 °F 30.80 in Calm     81 % 0.00 in 0.0 W/m2 CLR
21:13 -4.0 °F -8.9 °F 30.80 in Calm     79 % 0.00 in 0.0 W/m2 CLR
21:18 -4.1 °F -8.7 °F 30.81 in Calm     80 % 0.00 in 0.0 W/m2 CLR
21:20 -4.0 °F -8.6 °F 30.81 in Calm     80 % 0.00 in 0.0 W/m2 CLR
21:22 -3.8 °F -8.2 °F 30.81 in Calm     81 % 0.00 in 0.0 W/m2 CLR
21:26 -3.5 °F -7.9 °F 30.81 in Calm     81 % 0.00 in 0.0 W/m2 CLR
21:27 -3.4 °F -7.5 °F 30.81 in Calm     82 % 0.00 in 0.0 W/m2 CLR
21:31 -3.2 °F -7.3 °F 30.81 in Calm     82 % 0.00 in 0.0 W/m2 CLR
21:36 -3.1 °F -7.2 °F 30.81 in Calm     82 % 0.00 in 0.0 W/m2 CLR
21:41 -3.0 °F -7.1 °F 30.82 in Calm     82 % 0.00 in 0.0 W/m2 CLR
21:42 -2.9 °F -7.0 °F 30.82 in Calm     82 % 0.00 in 0.0 W/m2 CLR
21:46 -2.7 °F -6.8 °F 30.82 in Calm     82 % 0.00 in 0.0 W/m2 CLR
21:50 -2.4 °F -6.3 °F 30.81 in Calm     83 % 0.00 in 0.0 W/m2 CLR
21:51 -2.3 °F -6.2 °F 30.81 in Calm     83 % 0.00 in 0.0 W/m2 CLR
21:56 -2.0 °F -5.9 °F 30.81 in Calm     83 % 0.00 in 0.0 W/m2 CLR
21:57 -2.1 °F -6.0 °F 30.81 in Calm     83 % 0.00 in 0.0 W/m2 CLR
22:02 -1.8 °F -5.7 °F 30.81 in Calm     83 % 0.00 in 0.0 W/m2 CLR
22:05 -1.6 °F -5.5 °F 30.81 in Calm     83 % 0.00 in 0.0 W/m2 CLR
22:08 -1.6 °F -5.5 °F 30.81 in Calm     83 % 0.00 in 0.0 W/m2 CLR
22:13 -2.1 °F -6.5 °F 30.80 in Calm     81 % 0.00 in 0.0 W/m2 CLR
22:14 -2.2 °F -6.6 °F 30.80 in Calm     81 % 0.00 in 0.0 W/m2 CLR
22:17 -2.4 °F -7.1 °F 30.80 in Calm     80 % 0.00 in 0.0 W/m2 CLR
22:20 -2.6 °F -7.2 °F 30.80 in Calm     80 % 0.00 in 0.0 W/m2 CLR
22:22 -2.8 °F -7.4 °F 30.80 in Calm     80 % 0.00 in 0.0 W/m2 CLR
22:23 -2.8 °F -7.7 °F 30.79 in Calm     79 % 0.00 in 0.0 W/m2 CLR
22:27 -3.1 °F -8.0 °F 30.79 in Calm     79 % 0.00 in 0.0 W/m2 CLR
22:30 -3.2 °F -8.1 °F 30.79 in Calm     79 % 0.00 in 0.0 W/m2 CLR
22:32 -3.3 °F -8.2 °F 30.79 in Calm     79 % 0.00 in 0.0 W/m2 CLR
22:37 -3.5 °F -8.4 °F 30.79 in Calm     79 % 0.00 in 0.0 W/m2 CLR
22:42 -3.6 °F -8.7 °F 30.80 in Calm     78 % 0.00 in 0.0 W/m2 CLR
22:43 -3.6 °F -8.5 °F 30.80 in Calm     79 % 0.00 in 0.0 W/m2 CLR
22:48 -3.6 °F -8.5 °F 30.81 in Calm     79 % 0.00 in 0.0 W/m2 CLR
22:53 -3.1 °F -7.5 °F 30.81 in Calm     81 % 0.00 in 0.0 W/m2 CLR
22:58 -2.4 °F -6.3 °F 30.81 in Calm     83 % 0.00 in 0.0 W/m2 CLR
22:59 -2.3 °F -6.2 °F 30.82 in Calm     83 % 0.00 in 0.0 W/m2 CLR
23:04 -1.7 °F -5.6 °F 30.82 in WNW 2.3 mph 2.3 mph 83 % 0.00 in 0.0 W/m2 CLR
23:07 -1.5 °F -5.4 °F 30.82 in WNW 1.2 mph 1.2 mph 83 % 0.00 in 0.0 W/m2 CLR
23:12 -1.3 °F -5.5 °F 30.82 in WNW 3.5 mph 3.5 mph 82 % 0.00 in 0.0 W/m2 CLR
23:17 -1.2 °F -5.4 °F 30.82 in Calm     82 % 0.00 in 0.0 W/m2 CLR
23:21 -1.1 °F -5.3 °F 30.81 in WNW 1.2 mph 1.2 mph 82 % 0.00 in 0.0 W/m2 CLR
23:23 -1.1 °F -5.3 °F 30.81 in Calm     82 % 0.00 in 0.0 W/m2 CLR
23:27 -1.1 °F -5.5 °F 30.81 in Calm     81 % 0.00 in 0.0 W/m2 CLR
23:28 -1.1 °F -5.5 °F 30.80 in Calm     81 % 0.00 in 0.0 W/m2 CLR
23:32 -1.1 °F -5.5 °F 30.80 in Calm     81 % 0.00 in 0.0 W/m2 CLR
23:36 -1.2 °F -5.6 °F 30.80 in Calm     81 % 0.00 in 0.0 W/m2 CLR
23:40 -1.2 °F -5.6 °F 30.80 in Calm     81 % 0.00 in 0.0 W/m2 CLR
23:43 -1.2 °F -5.6 °F 30.80 in WNW 1.2 mph   81 % 0.00 in 0.0 W/m2 CLR
23:48 -1.1 °F -5.5 °F 30.80 in Calm     81 % 0.00 in 0.0 W/m2 CLR
23:53 -1.1 °F -5.5 °F 30.80 in Calm     81 % 0.00 in 0.0 W/m2 CLR
23:54 -1.1 °F -5.5 °F 30.80 in Calm     81 % 0.00 in 0.0 W/m2 CLR
23:58 -1.1 °F -5.5 °F 30.80 in WNW 1.2 mph 1.2 mph 81 % 0.00 in 0.0 W/m2 CLR
23:59 -1.0 °F -5.4 °F 30.80 in WNW 1.2 mph 1.2 mph 81 % 0.00 in 0.0 W/m2 CLR
Bourbonnais, Illinois, USA
Compliments of Weather Underground - 4.5 mb